User: anonymous   Login
Location: Adams
(39.9979°N, 79.0290°W)
Time: 23:55:41
(UTC+00:00)
Language:

Tiangong - Orbit

View from above orbital plane
View from above orbital plane
View from above satellite
View from above satellite

Ground track
Ground track

The orbit data is extracted from the following two-line orbital elements,

1 48274U 21035A   21334.23082469  .00010152  00000-0  11787-3 0  9999
2 48274  41.4713 350.8415 0002871 105.4086 350.2337 15.61735734 33668
Epoch (UTC): 30 November 2021 05:32:23
Eccentricity: 0.0002871
inclination: 41.4713°
perigee height: 381 km
apogee height: 384 km
right ascension of ascending node: 350.8415°
argument of perigee: 105.4086°
revolutions per day: 15.61735734
mean anomaly at epoch: 350.2337°
orbit number at epoch: 3366

The dashed part of the orbit path shows where the satellite is in the earth's shadow,  

DLR